Location: ??
(35.5090°N, 139.6783°E)
Time: 18:58:16
(UTC+00:00)

SJ-12 - Pass Details

Date: 08 November 2025
Orbit: 517 x 528 km, 97.8° (Epoch: 08 December)

Event Time Altitude Azimuth Distance (km) Brightness Sun altitude
Rises 07:59:22 0° 152° (SSE) 2,653 7.2 -4.6°
Reaches altitude 10° 08:01:32 10° 145° (SE) 1,766 6.2 -5.0°
Maximum altitude 08:05:09 42° 74° (ENE) 757 4.1 -5.7°
Drops below altitude 10° 08:08:46 10° 3° (N) 1,770 6.2 -6.4°
Sets 08:10:56 0° 356° (N) 2,661 7.2 -6.8°
